CAPE
1256 968 921 766 201 213 30 108 103 136 75 90 47 52 51 77 96 2 0 0 16 449 533 742 1352 810 719 1235 1842 1137 932 1336 1732 1426 1702 1695 1530 1688 1621 1594 1499 1403 1170 1603 1907 1694 1734 1808 1649
969 1024 925 817 198 47 12 99 158 144 72 112 71 83 87 105 49 0 0 0 244 502 803 564 1514 1061 737 1285 1795 1095 1047 1391 1655 1487 1528 1504 1451 1588 1621 1460 1056 1053 1063 1605 1641 1538 1630 1762 1858
636 809 679 833 138 47 21 112 100 83 55 98 126 84 54 108 43 1 0 26 440 518 849 582 1432 1090 991 1413 1641 1100 1166 1495 1829 1408 1191 1413 1392 1579 1694 1623 1265 1121 1301 1652 1788 1598 1694 1466 1252
1211 1200 1204 708 92 136 86 124 102 83 56 45 56 101 39 25 42 0 0 17 110 599 965 1108 1144 830 1260 1584 1466 1190 1275 1242 1901 1136 1362 1494 1331 1508 1633 1523 1587 1390 1448 1549 1528 1474 1465 1319 1363
1023 406 322 296 144 186 126 98 72 46 42 91 73 92 74 30 5 0 0 0 19 675 1020 687 1690 1309 1225 1680 1399 1108 1333 1110 1509 1266 1346 1514 1406 1471 1600 1551 1416 1341 1610 1592 1504 1405 1270 1356 1338
398 164 66 68 142 222 172 74 61 59 24 26 59 77 45 54 3 4 42 0 116 668 1285 713 1137 1840 1929 1485 1491 1608 1528 1132 1500 1485 1268 1550 1561 1521 1514 1489 1421 1594 1456 1237 1360 1158 1103 1079 1154
90 111 160 217 188 268 242 150 122 87 56 22 11 2 68 80 54 234 252 198 505 975 1261 1156 927 1457 1877 1685 1633 1556 1278 1193 1241 1349 1587 1218 1602 1452 1537 1410 1549 1244 1524 1459 1261 1300 1220 656 606
180 247 202 123 48 169 339 179 171 103 87 50 41 57 208 96 275 419 362 527 735 1065 1269 1245 1292 1337 1261 1265 1610 1587 1479 1127 990 1378 1480 1459 1250 1612 1520 1471 1552 1465 1237 1047 939 1178 755 818 830
71 76 170 167 87 124 242 218 194 122 85 79 67 30 71 189 354 389 360 336 434 906 1349 1316 1399 1302 1285 1237 1367 1706 1651 1097 1250 980 1286 1414 1208 1100 1424 1396 1472 1499 1309 1171 1093 995 1046 798 862
308 167 254 49 67 53 130 248 208 130 88 71 25 62 159 155 290 306 263 291 269 457 934 1132 1127 1106 1254 1404 1392 1471 1196 913 771 1345 1211 1342 1074 1012 1266 1592 1665 1719 1560 1159 986 971 1082 604 214
95 162 46 106 171 58 114 155 182 138 64 72 0 67 130 147 190 188 230 184 266 277 570 768 916 996 1138 1019 1113 1026 786 1009 1118 1144 988 967 961 834 1210 1066 1561 1417 1390 1143 933 747 570 440 360
425 183 7 188 128 141 193 122 158 176 137 78 25 30 34 118 180 178 222 210 125 250 247 302 710 739 759 646 574 768 1026 1260 1084 960 559 469 632 592 515 249 1051 1173 1150 762 798 420 252 281 356
380 90 100 266 225 201 263 170 176 157 37 15 45 41 20 74 122 94 168 2 5 112 194 195 302 376 345 204 712 769 1002 983 709 612 534 636 416 455 555 355 564 910 925 710 380 251 106 32 80
425 134 294 66 262 342 241 144 189 78 63 64 59 43 20 53 81 78 52 44 45 141 154 99 177 156 81 220 653 676 605 717 691 581 497 676 520 438 440 352 376 487 475 614 420 250 166 26 33
518 406 230 140 352 362 217 118 97 83 29 18 8 0 0 19 17 56 55 57 98 148 141 111 148 167 216 269 436 634 361 535 712 661 725 603 549 523 440 320 297 301 104 251 429 461 337 199 78
101 95 131 343 252 303 83 101 264 191 108 32 3 0 0 0 6 3 21 0 64 109 143 144 212 291 279 296 440 438 556 917 1008 810 628 666 667 518 354 171 187 314 162 204 221 245 61 151 115
53 37 31 212 487 312 250 238 230 270 241 178 84 35 0 0 0 23 0 19 99 111 133 129 184 429 463 408 433 427 699 718 680 640 783 866 814 477 418 349 324 331 336 289 224 184 60 130 54
2 7 20 49 222 415 507 499 158 168 220 260 225 175 98 0 0 38 11 34 131 162 211 174 155 268 478 564 660 644 392 467 589 657 476 758 857 581 527 427 378 242 157 68 202 283 145 151 62
0 0 6 112 341 529 486 384 313 126 199 182 278 221 268 149 0 0 26 4 85 171 244 219 259 256 370 507 789 765 636 749 836 653 673 889 968 705 494 411 325 222 107 106 240 501 338 488 658
0 0 0 184 332 526 548 455 538 351 154 86 232 268 315 354 223 10 0 0 13 45 94 147 205 374 522 487 572 615 892 642 811 849 670 1219 1142 799 603 490 509 456 138 176 442 495 525 533 550
0 0 0 39 408 549 563 524 493 312 399 208 311 445 439 473 434 363 253 60 0 0 29 150 178 447 649 612 686 772 449 543 596 917 634 770 1189 802 630 666 509 488 147 250 490 561 505 494 527
0 0 0 354 345 113 477 335 443 464 282 261 444 436 481 589 608 500 452 453 262 255 115 121 195 411 681 731 771 955 85 455 597 746 676 506 722 796 756 655 511 604 231 157 439 598 570 555 611
0 0 0 84 0 225 425 375 50 356 509 346 303 406 507 601 670 719 628 601 524 414 387 256 346 489 691 749 807 509 226 347 559 688 643 403 404 550 723 865 1031 790 489 234 422 428 499 542 719
0 0 0 0 0 0 68 409 0 230 474 478 442 474 550 537 655 803 816 667 608 522 450 371 417 566 661 748 741 553 296 364 553 607 523 444 252 183 398 841 915 767 380 273 454 441 605 798 822
0 0 0 0 3 0 12 172 14 96 182 128 293 454 499 567 635 744 880 897 677 663 555 496 534 589 668 741 763 621 347 336 521 647 521 458 52 1 14 321 674 978 590 542 588 546 536 558 714
0 0 0 0 0 18 21 8 53 84 157 212 352 1480 1229 614 413 757 845 889 932 766 576 514 529 533 595 656 607 594 303 384 506 481 490 545 217 132 53 499 686 1150 1171 885 876 712 662 868 959
0 0 0 0 1 8 3 27 68 438 1367 1325 1213 1122 1292 1363 922 783 724 871 1055 866 687 583 525 490 530 540 505 516 362 517 506 512 676 770 639 393 298 566 739 829 1191 1169 834 992 983 1002 849
0 0 0 0 0 7 23 76 144 535 1142 1085 1164 1078 1171 1257 1113 1040 938 887 892 911 655 674 654 526 498 576 539 523 629 647 671 721 796 1004 773 643 444 594 792 899 1021 1131 1122 1120 1081 1035 1047
0 0 0 0 0 0 13 118 230 810 1171 1169 1112 994 1005 1082 965 915 983 924 1082 912 785 633 788 671 529 535 562 625 804 1005 1095 922 1103 1025 881 758 504 646 728 934 970 1201 971 1170 1129 1242 1137
0 0 0 0 0 0 0 267 737 965 1233 1187 1041 1059 1075 1210 1197 1180 1096 995 1072 431 94 503 743 729 628 596 572 565 675 902 1099 1347 1387 1394 1308 1099 994 745 738 596 707 879 876 907 1095 1233 1156
CIN
-1 -3 -3 -5 -20 -8 -19 -24 -41 -57 -11 -30 -36 -29 -61 -59 -35 -18 -0 -0 -74 -1 -3 -1 -0 -1 -0 -0 -0 -2 -6 -1 -0 -0 -0 -0 -0 -0 -0 -0 -0 -2 -0 -0 -0 -0 -0 -0 -0
-13 -0 -2 -1 -25 -17 -19 -28 -52 -65 -22 -32 -41 -34 -48 -55 -54 -0 -0 -57 -12 -1 -1 -1 -0 -0 -2 -1 -0 -6 -1 -0 -0 -0 -0 -0 -0 -0 -0 -0 -0 -2 -0 -0 -0 -0 -0 -0 -0
-14 -11 -2 -10 -43 -15 -24 -13 -26 -34 -44 -34 -32 -48 -48 -74 -7 -16 -0 -52 -1 -3 -2 -2 -0 -1 -0 -0 -0 -7 -1 -0 -0 -0 -0 -0 -0 -0 -0 -0 -0 -0 -0 -0 -0 -0 -0 -0 -0
-5 -5 -0 -38 -18 -25 -41 -16 -27 -41 -42 -20 -15 -13 -36 -24 -21 -0 -0 -54 -19 -2 -1 -1 -0 -4 -0 -0 -0 -1 -0 -0 -0 -0 -0 -0 -0 -0 -0 -0 -0 -0 -0 -0 -0 -0 -0 -0 -5
-29 -74 -65 -58 -18 -44 -60 -44 -77 -59 -43 -21 -13 -11 -20 -25 -25 -0 -11 -0 -63 -1 -1 -0 -0 -0 -0 -0 -0 -0 -0 -1 -0 -0 -0 -0 -0 -0 -0 -0 -0 -0 -0 -0 -0 -0 -1 -3 -4
-96 -157 -71 -19 -17 -44 -74 -73 -72 -60 -62 -60 -32 -21 -103 -100 -25 -96 -63 -3 -37 -3 -1 -1 -0 -0 -0 -0 -0 -0 -0 -2 -0 -0 -0 -0 -0 -0 -0 -0 -0 -0 -0 -0 -0 -0 -1 -8 -5
-198 -186 -133 -120 -16 -42 -58 -50 -64 -94 -69 -56 -60 -49 -142 -128 -114 -31 -16 -29 -17 -2 -1 -0 -1 -0 -0 -0 -0 -0 -1 -2 -1 -0 -0 -0 -0 -0 -0 -0 -0 -0 -0 -0 -0 -4 -3 -21 -20
-232 -166 -131 -83 -25 -26 -59 -74 -51 -55 -118 -97 -57 -63 -84 -133 -40 -18 -20 -18 -9 -1 -0 -1 -1 -0 -0 -1 -0 -0 -0 -4 -7 -2 -0 -0 -0 -0 -0 -0 -0 -0 -0 -3 -6 -6 -6 -10 -24
-435 -121 -101 -123 -83 -121 -32 -70 -41 -43 -74 -45 -36 -139 -170 -90 -18 -1 -12 -17 -14 -2 -0 -1 -1 -4 -6 -7 -1 -0 -0 -7 -2 -9 -2 -0 -2 -2 -0 -4 -0 -0 -0 -0 -5 -12 -9 -5 -21
-350 -250 -126 -66 -73 -91 -22 -90 -61 -71 -55 -49 -53 -123 -104 -54 -9 -7 -11 -10 -10 -19 -2 -7 -18 -20 -11 -5 -5 -1 -4 -19 -21 -6 -3 -1 -4 -5 -6 -4 -0 -0 -0 -2 -9 -9 -2 -50 -47
-418 -305 -174 -62 -123 -153 -95 -38 -87 -62 -58 -73 -0 -126 -64 -34 -27 -28 -16 -47 -59 -83 -8 -21 -43 -33 -20 -33 -31 -22 -36 -24 -11 -9 -15 -7 -18 -22 -8 -12 -2 -1 -4 -6 -14 -11 -50 -75 -93
-202 -274 -404 -252 -223 -104 -133 -65 -123 -119 -78 -99 -92 -187 -120 -55 -29 -35 -26 -24 -56 -116 -170 -117 -46 -41 -39 -54 -80 -49 -24 -11 -21 -29 -48 -41 -33 -30 -34 -41 -19 -10 -11 -21 -20 -47 -41 -114 -117
-228 -248 -316 -245 -85 -83 -161 -122 -116 -93 -30 -199 -259 -164 -98 -47 -60 -39 -39 -98 -266 -135 -89 -119 -118 -67 -76 -128 -69 -64 -40 -34 -53 -48 -46 -39 -45 -41 -56 -34 -46 -22 -19 -29 -50 -79 -56 -129 -109
-190 -279 -254 -45 -220 -195 -193 -198 -71 -71 -390 -323 -242 -239 -139 -66 -95 -79 -70 -196 -208 -69 -108 -166 -126 -121 -192 -166 -80 -74 -81 -81 -63 -58 -52 -24 -40 -47 -56 -76 -62 -39 -44 -38 -42 -123 -55 -113 -59
-157 -236 -276 -148 -220 -66 -68 -50 -314 -54 -248 -363 -339 -0 -0 -167 -114 -149 -137 -159 -129 -79 -76 -99 -166 -181 -45 -50 -108 -67 -32 -130 -74 -61 -48 -45 -32 -36 -49 -68 -48 -45 -51 -29 -39 -31 -45 -91 -33
-119 -225 -221 -201 -261 -44 -204 -202 -84 -113 -98 -98 -14 -0 -0 -0 -250 -206 -164 -0 -114 -81 -99 -76 -119 -152 -118 -107 -98 -53 -21 -68 -48 -51 -59 -60 -29 -20 -30 -38 -23 -46 -53 -79 -77 -39 -111 -63 -80
-150 -91 -107 -125 -72 -189 -260 -443 -167 -144 -102 -91 -69 -98 -0 -0 -0 -258 -0 -182 -138 -106 -124 -99 -163 -110 -82 -135 -59 -61 -48 -50 -47 -38 -35 -59 -24 -21 -38 -34 -19 -43 -34 -38 -54 -61 -11 -25 -27
-113 -165 -161 -145 -94 -279 -319 -327 -540 -273 -189 -119 -118 -81 -82 -0 -0 -324 -251 -229 -166 -154 -137 -120 -81 -107 -74 -106 -74 -33 -46 -63 -49 -40 -48 -92 -39 -52 -42 -41 -63 -70 -53 -71 -24 -54 -39 -18 -40
-0 -0 -171 -146 -280 -297 -343 -320 -489 -425 -204 -213 -124 -133 -83 -75 -0 -0 -315 -306 -241 -182 -138 -113 -68 -100 -13 -141 -72 -49 -51 -62 -59 -42 -118 -83 -46 -14 -27 -32 -108 -62 -125 -83 -17 -36 -37 -57 -29
-0 -0 -0 -174 -273 -247 -311 -309 -278 -413 -323 -353 -194 -123 -76 -74 -69 -12 -0 -0 -168 -135 -113 -108 -174 -159 -181 -26 -127 -96 -48 -74 -89 -46 -78 -57 -30 -24 -59 -28 -77 -56 -120 -33 -57 -40 -31 -21 -21
-0 -89 -0 -94 -286 -256 -254 -183 -131 -233 -346 -396 -212 -45 -54 -60 -64 -63 -38 -19 -0 -0 -166 -113 -87 -215 -166 -166 -103 -68 -139 -81 -79 -50 -41 -64 -48 -40 -97 -49 -62 -77 -97 -24 -42 -40 -35 -15 -39
-0 -0 -0 -250 -150 -197 -152 -113 -154 -142 -148 -518 -371 -51 -43 -27 -28 -61 -71 -27 -53 -40 -101 -86 -77 -253 -215 -153 -106 -69 -93 -131 -101 -67 -34 -55 -76 -63 -83 -55 -29 -36 -75 -109 -52 -25 -26 -36 -19
-0 -0 -0 -195 -0 -153 -148 -123 -129 -152 -117 -266 -57 -93 -71 -28 -29 -18 -46 -53 -44 -57 -36 -71 -301 -251 -222 -175 -121 -154 -213 -180 -95 -63 -45 -62 -42 -49 -31 -91 -45 -40 -75 -151 -74 -59 -58 -50 -19
-0 -0 -0 -0 -0 -0 -48 -130 -0 -136 -130 -139 -218 -71 -263 -38 -30 -25 -28 -53 -55 -57 -59 -45 -322 -265 -228 -177 -72 -85 -213 -161 -107 -76 -66 -59 -59 -52 -64 -38 -46 -45 -121 -182 -94 -63 -45 -35 -21
-0 -0 -0 -0 -3 -0 -56 -175 -44 -65 -171 -224 -58 -53 -36 -28 -24 -31 -21 -23 -51 -42 -43 -36 -371 -302 -228 -157 -88 -102 -199 -191 -130 -76 -60 -47 -86 -11 -36 -177 -45 -45 -111 -124 -71 -61 -46 -67 -53
-0 -0 -0 -0 -0 -31 -77 -33 -54 -70 -66 -64 -57 -85 -65 -27 -50 -32 -25 -24 -20 -31 -55 -51 -384 -302 -256 -171 -131 -107 -263 -273 -163 -112 -68 -49 -24 -29 -36 -140 -122 -76 -41 -62 -39 -45 -43 -15 -25
-0 -0 -0 -0 -1 -11 -18 -56 -34 -139 -128 -173 -195 -157 -76 -62 -44 -35 -88 -62 -24 -29 -49 -442 -391 -318 -261 -238 -197 -138 -301 -267 -243 -173 -66 -26 -19 -22 -34 -122 -76 -124 -54 -44 -45 -42 -34 -25 -36
-0 -0 -0 -0 -0 -29 -53 -27 -26 -114 -140 -270 -219 -213 -152 -73 -58 -41 -35 -27 -27 -27 -35 -294 -269 -263 -262 -289 -258 -305 -288 -266 -217 -126 -101 -47 -43 -35 -17 -155 -78 -108 -80 -43 -47 -31 -41 -26 -22
-0 -0 -0 -0 -0 -0 -31 -25 -23 -41 -95 -182 -226 -284 -214 -86 -97 -75 -46 -49 -20 -19 -290 -295 -289 -204 -186 -279 -255 -237 -240 -220 -206 -139 -71 -66 -59 -47 -46 -23 -115 -88 -83 -35 -63 -45 -46 -29 -25
-0 -0 -0 -0 -0 -0 -0 -30 -22 -32 -79 -110 -100 -214 -129 -81 -69 -57 -37 -27 -11 -189 -514 -360 -288 -264 -287 -270 -229 -229 -190 -185 -142 -124 -141 -83 -60 -44 -43 -33 -33 -25 -120 -69 -86 -88 -86 -43 -33
Wind_Speed
15 9 8 7 11 10 nan 7 15 20 nan nan nan nan nan nan nan nan nan nan nan 4 2 2 2 3 4 6 5 3 2 3 2 4 4 1 0 3 6 7 8 9 11 10 10 8 6 6 8
11 8 10 8 5 nan nan nan 4 5 nan 7 nan nan nan 13 nan nan nan nan 11 7 7 3 3 3 4 5 5 4 1 1 1 2 2 3 3 3 5 4 4 6 9 8 8 10 8 8 8
22 17 9 9 8 nan nan 2 4 nan nan nan 8 nan nan 12 nan nan nan nan 13 10 9 3 3 4 5 5 5 5 4 2 3 1 2 2 2 4 4 2 2 4 6 6 9 10 11 10 8
12 11 16 14 nan 18 nan 7 11 nan nan nan nan 16 nan nan nan nan nan nan 14 11 9 2 5 4 4 4 5 5 5 4 1 1 0 1 2 4 5 5 4 2 4 6 8 10 10 9 8
19 18 19 19 22 17 12 nan nan nan nan nan nan nan nan nan nan nan nan nan nan 15 9 4 4 2 3 3 3 3 4 5 2 2 1 2 3 5 5 4 4 5 6 6 7 7 8 8 7
23 26 nan nan 21 16 16 nan nan nan nan nan nan nan nan nan nan nan nan nan 11 12 11 6 4 2 1 2 3 2 2 4 4 3 2 3 3 4 5 6 8 8 8 7 6 7 5 6 7
nan 29 31 29 28 19 16 19 21 nan nan nan nan nan nan nan nan 13 18 21 16 14 15 12 8 2 4 1 1 2 4 4 4 5 3 2 3 4 6 8 9 10 7 7 7 6 4 5 4
27 29 30 29 nan 24 19 21 20 17 nan nan nan nan 10 nan 16 17 14 22 21 19 17 17 15 12 12 9 1 3 5 6 7 6 6 7 6 6 6 7 10 10 10 9 9 6 4 2 6
nan nan 27 24 nan 36 19 14 11 8 nan nan nan nan nan 19 20 21 17 27 24 24 22 19 17 13 11 10 7 4 5 8 10 8 7 7 6 3 5 7 10 10 9 10 9 5 3 3 5
16 13 21 nan nan nan 26 14 10 9 nan nan nan nan 22 20 19 21 16 19 27 24 20 16 12 13 11 10 11 7 8 7 10 8 7 5 8 7 7 9 12 13 12 11 10 6 1 0 6
nan 4 nan 23 29 nan 24 20 12 12 nan nan nan nan 24 14 14 16 18 21 28 26 19 19 14 13 11 9 9 9 9 9 9 8 6 4 5 7 7 6 6 4 9 4 6 4 5 6 10
23 27 nan 26 27 26 25 24 16 15 19 nan nan nan nan 16 5 11 10 14 24 24 19 17 15 13 12 12 8 6 8 9 8 6 5 5 6 8 6 9 11 4 3 5 4 6 7 14 10
33 nan 31 29 28 18 19 18 18 14 nan nan nan nan nan nan 5 nan 13 nan nan 23 19 14 11 10 11 10 8 5 6 7 7 4 4 3 7 8 9 8 11 5 4 2 2 2 4 nan nan
41 38 37 nan 22 17 14 21 18 nan nan nan nan nan nan nan nan nan nan nan nan 22 19 nan 7 7 nan 5 4 3 4 6 6 4 2 4 6 6 7 13 9 5 3 3 4 6 5 nan nan
28 37 44 35 21 16 15 19 nan nan nan nan nan nan nan nan nan nan nan nan nan 17 14 5 3 4 2 2 3 2 2 3 4 2 1 5 5 6 8 11 7 2 3 3 3 4 3 10 nan
20 nan 26 21 20 24 nan 29 28 24 23 nan nan nan nan nan nan nan nan nan nan 13 7 1 4 1 2 3 2 1 2 1 1 1 3 5 6 7 7 8 6 4 3 2 2 3 nan 9 10
nan nan nan 18 22 26 29 21 29 26 27 27 nan nan nan nan nan nan nan nan nan 9 5 5 3 4 4 2 2 3 2 3 5 5 7 6 7 7 4 10 6 8 3 1 4 10 nan 8 nan
nan nan nan nan 15 13 19 26 16 27 28 30 33 30 nan nan nan nan nan nan 11 3 3 6 4 3 4 7 8 11 9 8 9 9 9 9 7 6 7 7 10 8 2 nan 5 7 8 10 nan
nan nan nan 10 17 12 16 16 22 30 22 22 23 31 35 36 nan nan nan nan nan 6 4 8 10 11 14 13 14 14 13 13 14 13 14 12 10 6 7 5 7 8 3 1 7 7 10 15 12
nan nan nan 4 15 5 12 16 10 22 24 nan 21 25 31 30 29 nan nan nan nan nan nan 11 12 10 10 8 10 12 11 14 15 17 14 13 10 10 8 8 4 5 3 5 6 5 12 15 13
nan nan nan nan 10 7 14 12 17 19 17 15 17 21 26 28 28 27 25 nan nan nan nan 17 16 14 12 9 10 9 11 13 12 14 13 10 8 8 10 11 10 4 5 7 7 7 9 14 13
nan nan nan 24 11 10 10 8 14 13 19 15 17 23 25 28 24 24 23 27 24 20 16 15 16 13 11 13 12 10 nan 7 7 10 9 8 9 10 15 14 11 8 6 7 11 10 13 15 14
nan nan nan nan nan 3 15 8 nan 6 14 14 15 27 27 28 23 23 23 20 20 14 12 13 14 13 11 9 11 9 3 4 12 10 10 10 12 13 19 15 12 13 9 9 13 14 12 14 13
nan nan nan nan nan nan nan 11 nan 13 13 13 15 4 16 28 32 24 21 17 12 9 12 13 13 12 12 12 11 10 8 5 1 4 4 7 9 8 9 11 14 13 11 10 15 14 12 13 13
nan nan nan nan nan nan nan 5 nan nan 10 19 11 12 18 24 30 26 20 16 12 12 12 12 16 15 12 12 11 12 10 9 9 6 4 6 nan nan nan 13 9 15 17 14 17 16 15 14 13
nan nan nan nan nan nan nan nan nan nan 1 6 10 15 11 12 22 27 23 20 19 20 19 15 16 16 17 16 13 11 12 7 7 7 8 8 7 8 nan 12 15 13 16 17 19 19 18 16 14
nan nan nan nan nan nan nan nan nan 8 5 3 10 11 9 14 24 29 28 24 22 25 23 17 13 14 12 16 15 13 10 8 9 12 12 12 11 9 9 11 6 10 18 19 20 20 19 18 15
nan nan nan nan nan nan nan nan 2 5 7 3 12 15 16 21 17 22 22 25 18 27 32 25 7 12 12 11 11 14 14 8 9 13 16 15 11 8 11 13 9 13 18 20 22 23 20 17 19
nan nan nan nan nan nan nan 4 5 4 5 12 13 20 19 17 17 24 24 27 28 29 33 26 12 5 7 11 9 11 12 11 9 10 12 14 12 9 7 9 10 10 14 21 23 23 22 17 17
nan nan nan nan nan nan nan 1 2 4 8 16 25 30 24 22 19 19 28 34 34 33 nan 25 9 8 11 12 14 11 14 12 9 8 7 12 13 11 7 9 8 8 9 18 19 20 20 20 20
Wind_Direction
43 54 99 125 189 224 nan 254 262 270 nan nan nan nan nan nan nan nan nan nan nan 234 193 258 357 37 11 339 321 305 262 283 27 359 18 319 165 66 71 75 54 43 13 19 15 25 27 28 30
85 55 89 98 121 nan nan nan 312 325 nan 224 nan nan nan 201 nan nan nan nan 242 224 194 207 337 22 11 346 321 312 301 354 81 51 25 17 21 31 50 36 45 20 16 24 23 37 40 38 41
33 75 83 74 82 nan nan 269 269 nan nan nan 234 nan nan 192 nan nan nan nan 205 205 191 212 338 359 11 352 321 328 346 352 57 98 49 350 28 17 31 37 56 7 20 34 39 34 42 43 42
61 65 73 84 nan 63 nan 15 299 nan nan nan nan 226 nan nan nan nan nan nan 204 192 199 276 333 342 12 345 333 342 351 336 338 106 51 351 33 7 12 36 35 21 358 22 28 19 30 49 49
80 67 71 77 71 64 43 nan nan nan nan nan nan nan nan nan nan nan nan nan nan 183 193 217 305 330 20 330 320 357 360 8 38 333 254 269 3 2 29 22 39 33 49 46 42 37 34 37 45
88 80 nan nan 69 50 34 nan nan nan nan nan nan nan nan nan nan nan nan nan 229 192 186 189 295 329 343 332 323 6 24 25 40 54 266 264 337 353 20 15 21 25 31 46 55 50 53 34 57
nan 83 85 85 75 62 36 20 24 nan nan nan nan nan nan nan nan 233 229 243 239 208 188 183 191 182 344 328 295 24 59 55 50 57 50 4 331 6 3 27 28 22 22 33 37 42 34 41 42
94 90 91 83 nan 72 36 15 20 19 nan nan nan nan 249 nan 249 239 243 246 226 211 196 186 178 184 179 169 79 66 72 70 70 53 53 48 33 28 7 34 46 24 14 22 28 29 346 64 93
nan nan 90 95 nan 94 52 30 28 15 nan nan nan nan nan 268 259 248 255 228 233 206 207 206 180 182 180 170 145 93 68 72 76 64 33 37 61 54 25 10 24 22 16 19 28 19 353 298 124
57 66 83 nan nan nan 91 34 23 51 nan nan nan nan 282 271 260 258 257 236 228 207 203 183 174 183 179 169 157 162 132 129 113 102 94 73 49 39 39 5 7 18 8 15 25 17 277 94 46
nan 20 nan 79 86 nan 88 95 79 24 nan nan nan nan 327 305 244 245 248 223 205 198 209 164 178 178 169 160 158 157 157 144 125 102 95 88 60 40 42 12 15 8 18 36 12 346 8 85 40
30 31 nan 92 82 84 85 68 60 63 72 nan nan nan nan 356 235 215 219 242 213 186 169 153 172 172 159 160 159 161 150 130 130 123 76 53 42 38 16 10 19 22 14 6 350 6 42 49 57
48 nan 123 87 79 86 92 70 72 58 nan nan nan nan nan nan 157 nan 227 nan nan 160 138 145 166 168 166 161 170 160 125 135 132 121 75 27 29 27 359 358 350 332 324 3 329 49 59 nan nan
50 47 69 nan 78 85 61 69 58 nan nan nan nan nan nan nan nan nan nan nan nan 130 120 nan 131 139 nan 165 166 122 165 134 145 160 81 356 1 356 355 338 346 320 341 345 340 33 66 nan nan
48 40 48 57 71 69 62 89 nan nan nan nan nan nan nan nan nan nan nan nan nan 136 110 67 78 108 137 154 97 150 132 150 152 170 50 352 347 353 343 343 349 346 15 2 349 133 101 79 nan
50 nan 31 31 10 7 nan 71 48 33 30 nan nan nan nan nan nan nan nan nan nan 95 103 173 163 104 78 25 13 182 86 95 53 341 313 327 346 338 341 351 31 357 334 48 150 121 nan 106 104
nan nan nan 1 12 13 38 54 39 31 35 37 nan nan nan nan nan nan nan nan nan 92 85 76 114 321 345 297 251 264 268 267 289 288 290 313 319 328 339 16 359 348 357 105 159 133 nan 128 nan
nan nan nan nan 358 18 41 74 44 36 35 40 45 47 nan nan nan nan nan nan 65 82 352 358 351 281 281 255 263 265 265 265 262 266 272 284 275 289 296 0 350 330 359 nan 141 123 132 138 nan
nan nan nan 12 352 7 37 64 45 27 34 42 45 55 47 55 nan nan nan nan nan 44 296 299 291 299 290 278 280 266 276 275 271 264 271 270 249 252 266 292 337 349 351 152 166 169 147 142 147
nan nan nan 202 347 2 1 52 69 35 29 nan 35 50 58 55 57 nan nan nan nan nan nan 343 354 330 330 307 283 263 263 251 253 254 259 265 249 248 249 264 257 311 266 230 178 179 168 152 157
nan nan nan nan 279 248 300 99 86 66 45 43 42 48 58 54 48 51 50 nan nan nan nan 4 354 336 336 329 261 241 240 226 230 244 248 244 259 253 256 262 255 250 261 214 195 188 162 163 169
nan nan nan 292 279 312 338 75 99 58 71 57 63 50 49 51 52 50 44 52 53 36 15 16 5 353 334 309 297 289 nan 255 234 253 245 257 269 263 281 254 250 248 213 230 198 196 179 176 171
nan nan nan nan nan 308 64 114 nan 78 79 86 62 66 56 41 38 40 42 42 48 36 25 9 359 352 345 343 342 338 322 238 237 247 270 289 257 268 298 225 260 242 222 250 210 208 189 180 183
nan nan nan nan nan nan nan 356 nan 53 51 131 178 66 55 57 36 24 27 16 22 3 352 346 350 352 350 346 348 359 18 338 276 289 290 274 257 264 280 222 225 230 203 223 215 209 206 191 181
nan nan nan nan nan nan nan 277 nan nan 72 137 155 36 43 41 29 22 16 355 340 320 331 332 343 349 350 342 339 356 360 356 14 356 319 284 nan nan nan 259 241 214 204 205 211 208 206 196 193
nan nan nan nan nan nan nan nan nan nan 306 150 312 2 5 1 1 9 4 336 319 309 317 330 350 357 347 336 343 351 355 0 6 7 340 317 299 296 nan 281 239 220 216 202 210 203 200 196 192
nan nan nan nan nan nan nan nan nan 268 272 272 305 316 323 335 339 334 337 330 317 296 307 324 337 350 353 351 328 326 338 357 344 346 335 326 323 304 301 292 275 235 210 202 205 199 196 196 196
nan nan nan nan nan nan nan nan 260 292 16 359 270 292 327 313 316 325 322 314 294 278 252 228 202 335 334 348 323 310 316 338 330 317 320 322 319 309 286 292 291 255 212 198 201 201 202 199 198
nan nan nan nan nan nan nan 123 39 4 45 291 278 291 321 2 355 329 324 328 307 308 264 276 194 180 312 306 290 292 284 297 293 299 306 313 300 303 286 275 285 310 211 203 198 201 205 209 211
nan nan nan nan nan nan nan 226 283 259 257 252 290 301 322 325 309 328 328 328 335 351 nan 22 333 183 258 253 262 260 262 265 267 285 306 290 297 289 283 260 253 253 204 203 207 212 214 218 218